THY2030 LTBA-HLLB

Flight info

Callsign THY2030
Flight time N/A
Altitude 34000
Route BIG DCT KONEN DCT DUGLA DCT BERGO DCT IMR DCT MIL DCT NEVIK DCT RASNO DCT REDFI REDFI1D
Aircraft B38M/M-SDE1FGHILORVWXY/HB1

Departure

Time 2026-05-01 10:39
Airport İstanbul Atatürk Airport (LTBA)

Arrival

Time N/A
Airport Benina International Airport (HLLB)
Time Latitude Longitude Altitude Speed Heading
2026-05-01 10:05 40.96961 28.82857 112 ft 0 kts 147°
2026-05-01 10:23 40.96978 28.82842 110 ft 3 kts 146°
2026-05-01 10:23 40.96994 28.82827 114 ft 3 kts 146°
2026-05-01 10:24 40.97028 28.82808 113 ft 3 kts 196°
2026-05-01 10:24 40.97035 28.82814 113 ft 2 kts 238°
2026-05-01 10:29 40.96997 28.82738 112 ft 15 kts 236°
2026-05-01 10:29 40.96968 28.82678 114 ft 19 kts 238°
2026-05-01 10:30 40.96923 28.82579 114 ft 8 kts 237°
2026-05-01 10:31 40.96986 28.82415 114 ft 8 kts 324°
2026-05-01 10:31 40.96945 28.82237 114 ft 16 kts 238°
2026-05-01 10:34 40.96905 28.82152 114 ft 12 kts 239°
2026-05-01 10:34 40.96864 28.82062 114 ft 11 kts 238°
2026-05-01 10:34 40.96802 28.81936 115 ft 22 kts 239°
2026-05-01 10:35 40.96649 28.81600 115 ft 24 kts 239°
2026-05-01 10:35 40.96556 28.81396 113 ft 23 kts 238°
2026-05-01 10:35 40.96544 28.81370 113 ft 21 kts 238°
2026-05-01 10:35 40.96531 28.81341 114 ft 23 kts 238°
2026-05-01 10:36 40.96490 28.81150 116 ft 0 kts 276°
2026-05-01 10:37 40.96502 28.81084 114 ft 13 kts 295°
2026-05-01 10:37 40.96584 28.81037 114 ft 15 kts 38°
2026-05-01 10:38 40.96632 28.81144 115 ft 0 kts 58°
2026-05-01 10:38 40.96634 28.81148 115 ft 5 kts 58°
2026-05-01 10:38 40.96806 28.81517 115 ft 90 kts 58°
2026-05-01 10:38 40.97250 28.82478 159 ft 155 kts 56°
2026-05-01 10:39 40.97801 28.83824 943 ft 166 kts 60°
2026-05-01 10:39 40.98251 28.85153 2271 ft 151 kts 63°
2026-05-01 10:39 40.98636 28.86491 3204 ft 168 kts 66°
2026-05-01 10:39 40.98880 28.88109 3818 ft 199 kts 87°
2026-05-01 10:40 40.98432 28.89820 5206 ft 197 kts 119°
2026-05-01 10:40 40.97546 28.91238 6377 ft 202 kts 128°
2026-05-01 10:40 40.96433 28.92411 7359 ft 209 kts 143°
2026-05-01 10:40 40.95072 28.93446 7772 ft 247 kts 155°
2026-05-01 10:41 40.93727 28.93837 8241 ft 261 kts 181°
2026-05-01 10:41 40.92528 28.93447 9014 ft 253 kts 212°
2026-05-01 10:41 40.90238 28.90461 11244 ft 235 kts 230°
2026-05-01 10:42 40.89126 28.88795 11832 ft 250 kts 230°
2026-05-01 10:42 40.87940 28.87033 12369 ft 263 kts 231°
2026-05-01 10:42 40.86686 28.85204 12946 ft 274 kts 231°
2026-05-01 10:42 40.85383 28.83302 13478 ft 286 kts 230°
2026-05-01 10:43 40.84026 28.81314 14034 ft 297 kts 230°
2026-05-01 10:43 40.82614 28.79252 14522 ft 308 kts 230°
2026-05-01 10:43 40.81151 28.77116 15010 ft 319 kts 230°
2026-05-01 10:43 40.79635 28.74897 15450 ft 332 kts 230°
2026-05-01 10:44 40.79307 28.74417 15519 ft 336 kts 230°
2026-05-01 10:44 40.77887 28.72332 15803 ft 348 kts 230°
2026-05-01 10:44 40.76250 28.69933 16157 ft 355 kts 230°
2026-05-01 10:44 40.74598 28.67520 16518 ft 357 kts 230°
2026-05-01 10:45 40.72927 28.65095 16890 ft 358 kts 230°
2026-05-01 10:45 40.71237 28.62658 17257 ft 361 kts 230°
2026-05-01 10:45 40.69540 28.60201 17619 ft 362 kts 231°
2026-05-01 10:45 40.68246 28.57416 17988 ft 357 kts 252°
2026-05-01 10:46 40.67857 28.54203 18375 ft 358 kts 269°
2026-05-01 10:46 40.67933 28.52029 18603 ft 360 kts 275°
2026-05-01 10:46 40.68483 28.48807 18929 ft 363 kts 288°
2026-05-01 10:46 40.70006 28.44846 19375 ft 368 kts 294°
2026-05-01 10:47 40.71188 28.41848 19720 ft 370 kts 294°
2026-05-01 10:47 40.72402 28.38846 20064 ft 372 kts 295°
2026-05-01 10:47 40.73631 28.35845 20425 ft 374 kts 295°
2026-05-01 10:47 40.74452 28.33855 20667 ft 375 kts 295°
2026-05-01 10:48 40.75707 28.30828 21024 ft 377 kts 295°
2026-05-01 10:48 40.76968 28.27789 21375 ft 378 kts 295°
2026-05-01 10:48 40.77955 28.24600 21724 ft 374 kts 279°
2026-05-01 10:48 40.78217 28.21203 22111 ft 373 kts 272°
2026-05-01 10:49 40.78432 28.16656 22590 ft 376 kts 271°
2026-05-01 10:49 40.78529 28.14323 22840 ft 377 kts 271°
2026-05-01 10:49 40.78660 28.10852 23214 ft 379 kts 271°
2026-05-01 10:49 40.78781 28.07420 23587 ft 381 kts 270°
2026-05-01 10:50 40.78899 28.03925 23955 ft 383 kts 271°
2026-05-01 10:50 40.79015 28.00408 24278 ft 387 kts 271°
2026-05-01 10:50 40.79131 27.96852 24617 ft 389 kts 270°
2026-05-01 10:50 40.79246 27.93286 24947 ft 390 kts 271°
2026-05-01 10:51 40.79361 27.89704 25270 ft 391 kts 270°
2026-05-01 10:51 40.79425 27.86103 25611 ft 393 kts 269°
2026-05-01 10:51 40.79473 27.82486 25965 ft 396 kts 269°
2026-05-01 10:51 40.79290 27.78872 26278 ft 395 kts 256°
2026-05-01 10:52 40.77792 27.74536 26733 ft 398 kts 234°
2026-05-01 10:52 40.76535 27.72712 26978 ft 400 kts 224°
2026-05-01 10:52 40.74272 27.70602 27321 ft 403 kts 214°
2026-05-01 10:52 40.71845 27.68703 27689 ft 402 kts 214°
2026-05-01 10:53 40.69417 27.66873 28067 ft 401 kts 213°
2026-05-01 10:53 40.67017 27.65100 28437 ft 400 kts 213°
2026-05-01 10:53 40.64582 27.63324 28825 ft 399 kts 213°
2026-05-01 10:53 40.62150 27.61565 29214 ft 398 kts 213°
2026-05-01 10:54 40.59721 27.59815 29603 ft 397 kts 213°
2026-05-01 10:54 40.57306 27.58067 29973 ft 395 kts 213°
2026-05-01 10:54 40.54925 27.56279 30349 ft 393 kts 214°
2026-05-01 10:54 40.52551 27.54500 30676 ft 392 kts 214°
2026-05-01 10:55 40.50191 27.52735 31006 ft 392 kts 214°
2026-05-01 10:55 40.47823 27.50968 31349 ft 391 kts 214°
2026-05-01 10:55 40.45459 27.49205 31687 ft 391 kts 214°
2026-05-01 10:55 40.43092 27.47442 32035 ft 392 kts 214°
2026-05-01 10:56 40.40719 27.45674 32361 ft 392 kts 214°
2026-05-01 10:56 40.38339 27.43905 32717 ft 393 kts 214°
2026-05-01 10:56 40.35962 27.42138 33065 ft 393 kts 214°
2026-05-01 10:56 40.33582 27.40371 33428 ft 394 kts 214°
2026-05-01 10:57 40.31202 27.38604 33783 ft 393 kts 214°
2026-05-01 10:57 40.28753 27.37000 34082 ft 400 kts 204°
2026-05-01 10:57 40.25984 27.36215 34173 ft 413 kts 194°
2026-05-01 10:58 40.20240 27.35042 34201 ft 423 kts 195°
2026-05-01 10:58 40.14324 27.33906 34197 ft 433 kts 194°
2026-05-01 10:59 40.08355 27.32786 34196 ft 433 kts 194°
2026-05-01 10:59 40.02393 27.31672 34176 ft 434 kts 195°
2026-05-01 11:00 39.96454 27.30564 34167 ft 434 kts 195°
2026-05-01 11:00 39.90480 27.29452 34181 ft 434 kts 195°
2026-05-01 11:01 39.84509 27.28343 34152 ft 433 kts 195°
2026-05-01 11:01 39.78531 27.27293 34169 ft 435 kts 194°
2026-05-01 11:02 39.72534 27.26277 34160 ft 434 kts 194°
2026-05-01 11:02 39.66541 27.25260 34123 ft 434 kts 195°
2026-05-01 11:03 39.60548 27.24245 34162 ft 435 kts 195°
2026-05-01 11:03 39.54562 27.23232 34155 ft 434 kts 194°
2026-05-01 11:04 39.48577 27.22185 34127 ft 433 kts 195°
2026-05-01 11:04 39.42603 27.21079 34137 ft 434 kts 195°
2026-05-01 11:05 39.36656 27.19987 34134 ft 434 kts 195°
2026-05-01 11:05 39.30688 27.18893 34131 ft 434 kts 195°
2026-05-01 11:06 39.24706 27.17800 34117 ft 434 kts 195°
2026-05-01 11:06 39.18716 27.16705 34128 ft 437 kts 196°
2026-05-01 11:07 39.09685 27.15059 34080 ft 437 kts 196°
2026-05-01 11:07 39.03676 27.13966 34099 ft 436 kts 196°
2026-05-01 11:08 38.97667 27.12859 34095 ft 436 kts 196°
2026-05-01 11:09 38.88653 27.11185 34060 ft 437 kts 196°
2026-05-01 11:09 38.82626 27.10070 34091 ft 438 kts 196°
2026-05-01 11:10 38.73587 27.08400 34083 ft 438 kts 196°
2026-05-01 11:10 38.67591 27.07294 34058 ft 440 kts 197°
2026-05-01 11:11 38.61517 27.06176 34062 ft 441 kts 197°
2026-05-01 11:11 38.55443 27.05060 34067 ft 441 kts 197°
2026-05-01 11:12 38.49365 27.03944 34027 ft 442 kts 197°
2026-05-01 11:12 38.43247 27.02824 34057 ft 444 kts 197°
2026-05-01 11:13 38.37125 27.01705 34056 ft 444 kts 197°
2026-05-01 11:13 38.34172 27.00807 34021 ft 427 kts 211°
2026-05-01 11:13 38.31662 26.99009 34047 ft 409 kts 226°
2026-05-01 11:14 38.27790 26.93826 34044 ft 404 kts 236°
2026-05-01 11:14 38.24246 26.88309 34040 ft 401 kts 238°
2026-05-01 11:15 38.20798 26.82738 34045 ft 400 kts 238°
2026-05-01 11:15 38.17380 26.77160 34055 ft 400 kts 238°
2026-05-01 11:16 38.13975 26.71600 34046 ft 398 kts 239°
2026-05-01 11:16 38.10597 26.66094 34051 ft 398 kts 239°
2026-05-01 11:17 38.07193 26.60556 34058 ft 398 kts 239°
2026-05-01 11:17 38.03785 26.55018 34076 ft 397 kts 239°
2026-05-01 11:18 38.00395 26.49519 34028 ft 395 kts 239°
2026-05-01 11:18 37.97081 26.44153 34054 ft 394 kts 239°
2026-05-01 11:19 37.93761 26.38786 34057 ft 394 kts 239°
2026-05-01 11:19 37.90376 26.33324 34064 ft 394 kts 239°
2026-05-01 11:20 37.86988 26.27865 34062 ft 394 kts 239°
2026-05-01 11:20 37.83616 26.22441 34060 ft 389 kts 240°
2026-05-01 11:21 37.80304 26.17122 34065 ft 387 kts 240°
2026-05-01 11:21 37.76974 26.11784 34068 ft 387 kts 240°
2026-05-01 11:22 37.73641 26.06448 34070 ft 387 kts 240°
2026-05-01 11:22 37.70308 26.01121 34071 ft 387 kts 240°
2026-05-01 11:23 37.66973 25.95801 34072 ft 387 kts 240°
2026-05-01 11:23 37.63635 25.90483 34073 ft 386 kts 240°
2026-05-01 11:24 37.60298 25.85175 34068 ft 386 kts 240°
2026-05-01 11:25 37.55286 25.77222 34073 ft 386 kts 240°
2026-05-01 11:25 37.50261 25.69264 34075 ft 389 kts 239°
2026-05-01 11:26 37.45208 25.61283 34081 ft 388 kts 239°
2026-05-01 11:27 37.41848 25.55987 34082 ft 387 kts 239°
2026-05-01 11:27 37.38490 25.50701 34039 ft 387 kts 239°
2026-05-01 11:28 37.35101 25.45376 34071 ft 391 kts 239°
2026-05-01 11:28 37.31724 25.40079 34074 ft 391 kts 239°
2026-05-01 11:29 37.26621 25.32088 34097 ft 391 kts 239°
2026-05-01 11:30 37.21535 25.24144 34032 ft 390 kts 239°
2026-05-01 11:30 37.18107 25.18801 34075 ft 394 kts 239°
2026-05-01 11:31 37.14674 25.13458 34079 ft 393 kts 239°
2026-05-01 11:31 37.11242 25.08125 34075 ft 393 kts 239°
2026-05-01 11:32 37.07810 25.02800 34076 ft 393 kts 239°
2026-05-01 11:32 37.04380 24.97487 34061 ft 392 kts 239°
2026-05-01 11:33 37.00941 24.92170 34079 ft 393 kts 239°
2026-05-01 11:33 36.97500 24.86858 34081 ft 393 kts 239°
2026-05-01 11:34 36.94077 24.81581 34083 ft 393 kts 239°
2026-05-01 11:34 36.90637 24.76287 34085 ft 393 kts 239°
2026-05-01 11:35 36.87162 24.70945 34078 ft 394 kts 239°
2026-05-01 11:35 36.83722 24.65665 34084 ft 394 kts 239°
2026-05-01 11:36 36.80259 24.60358 34095 ft 394 kts 239°
2026-05-01 11:36 36.76792 24.55053 34095 ft 394 kts 239°
2026-05-01 11:37 36.73434 24.49694 34094 ft 392 kts 240°
2026-05-01 11:37 36.70700 24.45185 34083 ft 393 kts 240°
2026-05-01 11:38 36.67393 24.39758 34086 ft 393 kts 240°
2026-05-01 11:38 36.64086 24.34342 34095 ft 392 kts 240°
2026-05-01 11:39 36.60780 24.28936 34093 ft 392 kts 240°
2026-05-01 11:39 36.57481 24.23549 34096 ft 392 kts 240°
2026-05-01 11:40 36.54173 24.18157 34088 ft 392 kts 241°
2026-05-01 11:40 36.50855 24.12757 34097 ft 392 kts 241°
2026-05-01 11:41 36.47540 24.07370 34075 ft 392 kts 240°
2026-05-01 11:41 36.44251 24.02035 34089 ft 392 kts 241°
2026-05-01 11:42 36.40933 23.96659 34093 ft 392 kts 241°
2026-05-01 11:42 36.37609 23.91283 34086 ft 393 kts 240°
2026-05-01 11:43 36.34278 23.85905 34087 ft 393 kts 240°
2026-05-01 11:43 36.30948 23.80537 34091 ft 393 kts 240°
2026-05-01 11:44 36.25951 23.72496 34094 ft 393 kts 240°
2026-05-01 11:44 36.22617 23.67142 34080 ft 392 kts 240°
2026-05-01 11:45 36.19272 23.61780 34090 ft 394 kts 240°
2026-05-01 11:45 36.15922 23.56417 34091 ft 394 kts 240°
2026-05-01 11:46 36.12597 23.51102 34089 ft 394 kts 240°
2026-05-01 11:46 36.09244 23.45752 34088 ft 394 kts 240°
2026-05-01 11:47 36.06969 23.42127 34095 ft 393 kts 240°
2026-05-01 11:47 36.03626 23.36805 34086 ft 392 kts 240°
2026-05-01 11:48 36.01265 23.33052 34078 ft 392 kts 240°
2026-05-01 11:48 35.97921 23.27744 34078 ft 392 kts 240°
2026-05-01 11:49 35.94571 23.22435 34075 ft 392 kts 240°
2026-05-01 11:49 35.91219 23.17130 34075 ft 392 kts 240°
2026-05-01 11:50 35.87866 23.11831 34037 ft 392 kts 240°
2026-05-01 11:50 35.84508 23.06533 34066 ft 392 kts 240°
2026-05-01 11:51 35.81159 23.01259 34058 ft 391 kts 240°
2026-05-01 11:51 35.77792 22.95963 34061 ft 392 kts 240°
2026-05-01 11:52 35.74455 22.90722 34061 ft 392 kts 240°
2026-05-01 11:52 35.71090 22.85445 34056 ft 392 kts 240°
2026-05-01 11:53 35.67734 22.80192 34045 ft 391 kts 240°
2026-05-01 11:53 35.64381 22.74950 34049 ft 389 kts 239°
2026-05-01 11:54 35.61036 22.69729 34049 ft 389 kts 239°
2026-05-01 11:54 35.57687 22.64508 34045 ft 389 kts 239°
2026-05-01 11:55 35.54331 22.59286 34045 ft 389 kts 239°
2026-05-01 11:55 35.52763 22.56849 34007 ft 389 kts 239°
2026-05-01 11:56 35.49829 22.52292 34043 ft 389 kts 239°
2026-05-01 11:56 35.46474 22.47091 34041 ft 389 kts 239°
2026-05-01 11:57 35.43144 22.41938 34032 ft 388 kts 239°
2026-05-01 11:57 35.39795 22.36760 34032 ft 387 kts 239°
2026-05-01 11:58 35.36450 22.31595 34032 ft 387 kts 239°
2026-05-01 11:59 35.31414 22.23836 34029 ft 388 kts 239°
2026-05-01 11:59 35.28051 22.18661 34030 ft 388 kts 239°
2026-05-01 12:00 35.23009 22.10918 34034 ft 387 kts 239°
2026-05-01 12:01 35.17994 22.03230 34034 ft 388 kts 239°
2026-05-01 12:01 35.14658 21.98425 30428 ft 257 kts 237°
2026-05-01 12:01 35.14410 21.98166 16087 ft 220 kts 120°
2026-05-01 12:02 35.11684 22.01456 12927 ft 556 kts 140°
2026-05-01 12:02 35.09599 22.03179 5760 ft 257 kts 322°